Miscellaneous Local Product
Issued by NWS North Platte, NE

Home | Current Version | Previous Version | Text Only | Print | Product List | Glossary On
Versions: 1 2 3 4 5 6 7 8 9 10 11 12 13 14 15 16 17 18 19 20 21 22 23 24 25 26 27 28 29 30 31 32 33 34 35 36 37 38 39 40 41 42 43 44 45 46 47 48 49 50
237
AXUS43 KLBF 250310
MISLBF


WESTERN AND NORTH CENTRAL NEBRASKA HOURLY WEATHER ROUNDUP
NATIONAL WEATHER SERVICE NORTH PLATTE NE
1000 PM CDT SAT SEP 24 2016

NOTE: "FAIR" INDICATES FEW OR NO CLOUDS BELOW 12,000 FEET WITH NO
SIGNIFICANT WEATHER AND/OR OBSTRUCTIONS TO VISIBILITY.

NOTE: STATIONS NOT REPORTING VARIABLES SUCH AS SKY/WEATHER OR
PRESSURE ARE PROVIDED BY RAWS AND APRS NETWORKS AND ARE NOT UNDER
NATIONAL WEATHER SERVICE QUALITY CONTROL.

...OBSERVATIONS IN AND NEAR THE EASTERN PANHANDLE OF NEBRASKA...

CITY           SKY/WX    TMP DP  RH WIND       PRES   REMARKS
PINE RIDGE     PTCLDY    53  41  63 W24G32    30.08R
CHADRON        MOCLDY    54  41  61 W18G30    30.13R
ALLIANCE       MOCLDY    52  42  69 W15       30.14R
SIDNEY         CLEAR     50  41  71 N9        30.19R
CRESCENT LAKE    N/A     50  41  70 NW6G16      N/A
$$

...OBSERVATIONS IN NORTHERN NEBRASKA AND FAR SOUTHERN SOUTH DAKOTA...

CITY           SKY/WX    TMP DP  RH WIND       PRES   REMARKS
WINNER         FAIR      63  41  44 W22G30    29.98R
VALENTINE      CLEAR     56  40  55 W18G30    30.03R
THEDFORD       CLEAR     58  43  57 NW14G21   30.09R
AINSWORTH      CLEAR     59  43  55 W14G21    30.04R
O`NEILL        CLOUDY    61  45  55 W5        29.97S
ORD            PTCLDY    56  48  74 NW3       29.97R
BROKEN BOW     CLEAR     55  42  61 CALM      30.01R
BUTTE            N/A     63  42  47 W7          N/A
HALSEY           N/A     61  42  48 NW9G16      N/A
EWING            N/A     63  59  87 CALM        N/A
$$

...OBSERVATIONS IN SOUTHWEST NEBRASKA AND FAR NORTHEAST COLORADO...

CITY           SKY/WX    TMP DP  RH WIND       PRES   REMARKS
WRAY           CLOUDY    63  34  34 N20G29    30.12R
HOLYOKE        FAIR      59  41  51 N10       30.15R
IMPERIAL       CLEAR     60  38  43 NW12      30.10R
OGALLALA       CLEAR     61  44  52 N17G23    30.11R
NORTH PLATTE   CLEAR     56  44  64 NW10      30.06R
MCCOOK         CLEAR     58  43  57 CALM      30.03R
LEXINGTON      CLEAR     59  48  66 NW5       30.02R
STAPLETON        N/A     57  44  63 CALM        N/A
GOTHENBURG       N/A     64  40  41 CALM        N/A
CALLAWAY         N/A     53  49  86 NW3         N/A
$$

...OBSERVATIONS IN CENTRAL LINCOLN COUNTY AREA...

CITY           SKY/WX    TMP DP  RH WIND       PRES   REMARKS
N.P. AIRPORT   CLEAR     56  44  64 NW10      30.06R
N.P. DOWNTOWN    N/A     61  44  53 NW6         N/A
N.P. SOUTHEAST   N/A     62  43  49 N3G12       N/A
N.P. HILLCREST   N/A     61  45  54 N18         N/A
$$

...SOME OBSERVATIONS FROM AROUND THE REGION...

CITY           SKY/WX    TMP DP  RH WIND       PRES   REMARKS
DENVER         PTCLDY    51  29  42 NE8       30.22R
LARAMIE        CLOUDY    41  33  73 NW20      30.31R
CHEYENNE       CLOUDY    46  36  68 NW12G25   30.26R
SCOTTSBLUFF    CLEAR     51  41  68 NW9       30.18R
RAPID CITY     LGT RAIN  50  41  71 W13       30.02R
BISMARCK       CLEAR     60  49  66 SW9       29.76R
PIERRE         CLEAR     56  41  57 W14       29.92R
SIOUX FALLS    CLOUDY    71  68  90 S7        29.91S
OMAHA          CLOUDY    71  67  87 S12       29.93F
GRAND ISLAND   PTCLDY    65  62  90 W3        29.97R
KANSAS CITY    RAIN      70  66  87 CALM      30.00S FOG
WICHITA        TSTM      68  66  93 SE16      29.95F
OKLAHOMA CITY  CLOUDY    72  67  84 NE6       29.98R
DALLAS         CLOUDY    77  72  84 S12       29.93F
AMARILLO       CLEAR     67  43  41 S9        30.01R
DODGE CITY     CLOUDY    63  60  90 SE7       30.00R
HAYS           CLOUDY    66  57  72 NE5       29.99R
GOODLAND       PTCLDY    55  38  52 E5        30.08R
$$




USA.gov is the U.S. government's official web portal to all federal, state and local government web resources and services.